Vertical_Velocity
-3 0 1 -3 3 5 -9 7 -11 16 -3 5 6 -4 -8 -4 -2 0 -0 -1 -0 -1 0 -0 -1 -3 -4 -4 -3 -3 -3 -6 -3 1 -1 -2 2 1 1 -2 -2 -3 -3 -0
-3 -2 -3 -4 6 -6 3 11 -19 6 -11 -15 -3 -3 -2 -1 -1 0 -1 -1 -2 -1 -1 -3 -1 -2 -1 0 -1 -2 -1 -2 -2 -1 1 1 1 -0 -1 -1 0 -1 -1 -2
-8 1 -10 -18 6 8 -0 0 6 -6 13 3 1 -1 -0 -0 -1 -3 -2 -3 -3 -4 -3 -2 -3 0 -1 0 -0 -0 -2 -3 -3 -1 -1 0 -1 -1 -3 -2 -1 0 -2 -2
-6 -0 -37 16 14 0 2 -0 -2 -1 5 -0 -1 -0 1 -2 -0 1 -2 -1 -1 -2 -2 -1 -1 -1 -3 -3 -2 -3 -3 -3 -4 -4 -2 1 0 -4 -1 1 -2 -1 0 -1
-11 -0 9 1 6 3 -8 18 -2 3 -0 3 -1 -2 3 -3 -1 -2 -3 -4 -3 -1 -1 -1 -0 -2 -3 -1 -2 -3 -2 -3 -3 -5 -0 -1 -2 -2 -4 1 -4 -0 -1 1
-2 -7 -18 16 8 7 1 -9 0 -2 3 2 -1 -2 -4 0 -3 -2 -3 -2 -1 -1 1 1 -1 -2 -1 -1 -2 -2 -3 -1 -2 -4 -5 -3 -4 -4 -0 -5 -6 -1 -2 0
8 -9 -14 10 8 6 -9 16 -2 5 1 1 1 -2 -1 -1 -2 -1 0 -1 -2 -3 -3 -3 -2 -4 -3 -1 -2 -1 -1 -3 -2 -5 -4 -4 -1 -4 -3 -4 -3 -2 -1 1
9 -5 -31 28 1 -10 7 1 1 2 0 1 -2 2 2 -0 -1 -1 -1 -2 -1 -2 -2 -3 -1 -2 -3 -2 -2 -4 -5 -4 -4 -4 -3 -4 -3 1 -4 -7 -4 -0 -0 -1
11 -2 9 -5 2 1 0 7 -4 -1 0 -3 1 4 3 2 1 1 0 -0 -2 -3 -3 -3 -3 0 -1 -2 -1 -1 -2 -4 -2 -0 -4 -6 -3 -1 1 -4 -3 -1 -1 0
6 19 8 1 1 4 1 -4 3 -0 -2 -2 -2 0 1 2 1 -0 -1 -1 -1 -1 -2 -2 -2 -4 -4 -3 -2 -3 -3 -5 0 -3 -2 -5 -6 -8 -1 -2 1 -4 -3 -2
-9 9 7 11 5 -13 -2 3 2 1 -4 -2 -0 -1 1 0 -0 0 -2 -1 -2 -2 -1 -1 -2 -4 -3 -4 -3 -2 -3 -2 -1 -5 -4 -1 -5 -8 4 -5 -1 1 -2 -1
-1 4 -6 9 -2 -0 5 0 -2 -1 1 -0 1 0 -0 -2 -2 -1 -2 -3 -2 -2 -0 -0 -1 -2 -3 -5 -5 -5 -2 -0 -4 -4 -2 -4 -3 7 -21 -6 -2 -1 -4 -2
-1 3 3 4 3 4 -2 -4 -1 -2 1 1 -1 -1 -2 -1 -2 -2 -2 -1 1 -1 -1 -1 -1 -2 -4 -5 -5 -4 -5 -3 -3 -4 -3 -2 -3 -2 7 1 -15 -1 0 -1
3 4 0 2 1 2 -1 0 -0 1 4 1 -1 0 3 1 1 -1 0 1 -0 -2 -1 -0 -2 -3 -3 -3 -3 -5 -4 -5 -6 -6 -4 -1 -3 -2 -2 1 6 3 -9 -0
3 1 2 1 -1 -1 -1 0 2 1 -0 -2 2 2 3 3 0 0 1 1 -0 -1 -1 -1 -1 -3 -2 -4 -3 -6 -3 -2 -2 -3 -6 -4 -2 -4 -3 -2 -1 0 1 -6
6 4 1 1 1 1 3 0 3 2 -0 0 2 2 2 1 0 1 2 1 1 -0 -1 -1 -1 -2 -1 -3 -3 -4 -6 -5 -5 -4 -2 -2 -2 -2 -2 -3 -2 -1 -1 -1
2 0 -2 3 8 6 4 0 1 1 0 2 1 3 1 0 0 1 3 1 -1 -2 -3 -3 -2 -1 -3 -4 -2 -3 -5 -4 -3 -7 -5 -2 -1 -1 -2 -2 -2 -2 -2 -2
5 5 4 8 5 2 1 1 0 2 2 2 1 2 -0 1 2 2 1 1 -1 -4 -2 -4 0 1 -2 -4 -3 -3 -4 -3 -2 -2 -2 -2 -1 -0 -2 -3 -2 -1 -2 -3
5 3 3 2 2 1 2 2 4 4 2 1 1 2 3 2 1 1 0 -0 -0 0 -0 -0 -0 -3 -3 -3 -4 -3 -4 -3 -3 -6 -4 -3 -4 -2 -2 -3 -3 -1 -2 -2
4 2 1 2 2 3 4 5 3 2 2 2 2 3 3 1 0 -1 -1 -1 -2 -2 -1 -3 -2 -3 -3 -2 -2 -3 -5 -3 -2 -3 -3 -3 -0 -1 -3 -3 -3 -1 -1 -2
3 2 3 2 3 3 3 4 3 2 3 2 1 1 1 0 -1 -2 -2 -1 -1 -1 -2 -4 -3 -2 -2 -3 -2 -0 -5 -4 -3 -2 -2 -1 -2 -1 -2 -2 -2 -0 -1 -2
4 3 2 2 1 1 1 1 2 3 1 0 1 0 -0 -2 -2 -2 -1 -1 -0 -2 -3 -4 -2 -1 -0 -3 0 -1 -4 -3 -4 -4 -3 -3 -2 -2 -2 -1 -2 -2 -1 -2
5 4 3 2 1 1 1 1 -1 -1 -0 -1 -1 0 0 -1 -2 -1 0 -1 -2 -3 -2 1 -2 -0 0 -4 -0 -2 -3 -3 -4 -3 -2 -3 -2 -2 -1 -1 -1 -2 -2 -0
2 2 2 1 -0 -0 -1 -0 -1 -2 -2 -1 -0 -0 0 0 1 -1 -4 -3 -2 -2 -2 -3 -2 2 -1 -3 -2 -2 -3 -3 -4 -4 -3 -2 -2 -2 -1 -1 -1 -2 -2 -1
-1 -2 -2 -2 -1 -1 -1 -1 -1 -1 0 -0 -1 -2 -1 -0 -2 -2 -3 -2 1 1 3 -3 -1 0 -1 -2 -2 -2 -2 -2 -3 -4 -2 -3 -4 -3 -1 0 -0 -1 -1 -1
-2 -1 -1 -1 -1 1 1 1 0 1 1 0 -0 -2 -3 -5 -4 -3 -0 0 0 -1 4 -2 -1 -0 -2 -2 -1 -2 -2 -2 -3 -2 -2 -2 -2 -2 -1 -0 -1 -1 -1 -1
-1 0 -1 -2 -2 -2 -1 -0 -1 -1 -0 -0 -2 -2 -1 1 0 -2 -0 -0 -2 -1 1 0 1 -0 -1 -0 -1 -1 -1 -2 -3 -2 -2 -3 -2 -2 -1 -0 -0 -1 -1 -0
Height
5688 5689 5689 5690 5691 5691 5690 5692 5684 5690 5683 5689 5680 5673 5669 5666 5662 5658 5653 5648 5641 5634 5628 5621 5614 5605 5596 5586 5576 5565 5553 5539 5524 5507 5489 5470 5454 5439 5424 5409 5394 5379 5366 5356
5674 5676 5677 5675 5676 5680 5682 5680 5674 5674 5672 5671 5667 5664 5660 5656 5651 5646 5641 5635 5629 5623 5617 5610 5602 5594 5584 5575 5564 5552 5539 5525 5509 5493 5472 5454 5438 5422 5407 5392 5374 5359 5346 5336
5659 5664 5662 5652 5673 5669 5669 5669 5667 5660 5666 5658 5657 5652 5648 5644 5639 5634 5629 5623 5618 5612 5606 5598 5590 5582 5573 5562 5550 5538 5525 5510 5494 5477 5458 5439 5422 5407 5390 5374 5357 5341 5329 5320
5644 5649 5642 5651 5658 5660 5657 5658 5655 5652 5650 5647 5644 5640 5637 5633 5627 5623 5618 5613 5607 5600 5594 5587 5578 5570 5559 5549 5537 5524 5510 5495 5478 5460 5443 5425 5409 5393 5376 5358 5342 5328 5317 5309
5632 5633 5637 5634 5645 5647 5645 5648 5644 5641 5637 5635 5632 5628 5626 5620 5616 5611 5606 5600 5594 5588 5582 5575 5566 5557 5547 5535 5523 5510 5495 5479 5461 5444 5430 5412 5397 5381 5362 5346 5331 5319 5309 5303
5620 5622 5619 5624 5636 5635 5631 5627 5633 5628 5626 5624 5620 5617 5612 5608 5603 5599 5594 5588 5582 5576 5570 5562 5554 5544 5534 5523 5510 5496 5481 5464 5447 5431 5416 5402 5385 5369 5352 5336 5324 5314 5306 5301
5610 5608 5609 5611 5623 5622 5619 5625 5614 5615 5614 5612 5608 5605 5601 5596 5591 5586 5581 5575 5569 5563 5557 5550 5541 5531 5521 5509 5496 5483 5467 5451 5435 5420 5406 5391 5375 5358 5344 5332 5322 5313 5307 5303
5596 5598 5595 5609 5604 5608 5608 5605 5602 5600 5599 5597 5594 5591 5587 5582 5578 5573 5568 5562 5556 5550 5543 5536 5529 5519 5508 5497 5485 5470 5455 5440 5426 5411 5396 5382 5367 5353 5339 5329 5322 5315 5311 5306
5587 5588 5592 5589 5591 5592 5593 5590 5587 5586 5585 5582 5580 5576 5572 5568 5564 5560 5555 5549 5542 5536 5530 5523 5515 5506 5496 5485 5472 5458 5444 5432 5418 5403 5388 5373 5360 5349 5338 5330 5323 5317 5313 5308
5571 5575 5578 5581 5580 5578 5576 5575 5575 5573 5571 5568 5566 5563 5559 5555 5551 5547 5542 5536 5530 5524 5517 5510 5502 5493 5484 5473 5460 5446 5435 5422 5410 5396 5383 5367 5354 5344 5336 5330 5325 5318 5313 5309
5558 5564 5569 5569 5566 5563 5563 5563 5561 5558 5557 5556 5553 5549 5546 5543 5539 5534 5529 5524 5518 5512 5506 5498 5489 5479 5470 5459 5448 5437 5426 5413 5402 5390 5377 5364 5351 5340 5335 5328 5323 5318 5313 5309
5549 5552 5553 5555 5552 5552 5551 5549 5547 5546 5544 5543 5541 5537 5534 5531 5527 5522 5518 5512 5507 5501 5494 5485 5476 5467 5457 5446 5437 5428 5418 5406 5394 5384 5371 5359 5351 5342 5329 5325 5321 5316 5311 5307
5536 5539 5541 5541 5539 5538 5536 5535 5535 5533 5532 5530 5528 5525 5522 5518 5514 5509 5505 5499 5494 5488 5480 5471 5463 5454 5445 5435 5427 5417 5409 5398 5388 5377 5365 5355 5347 5341 5337 5328 5316 5313 5310 5306
5523 5525 5527 5526 5525 5524 5522 5522 5521 5521 5519 5517 5514 5511 5508 5504 5500 5496 5492 5487 5481 5474 5466 5458 5451 5442 5434 5426 5417 5408 5399 5389 5379 5370 5360 5351 5344 5337 5332 5328 5324 5317 5309 5305
5507 5509 5511 5511 5511 5510 5509 5509 5508 5507 5505 5503 5500 5498 5495 5491 5488 5483 5478 5473 5467 5460 5453 5446 5438 5431 5423 5416 5407 5400 5392 5384 5374 5364 5354 5345 5340 5334 5329 5324 5318 5314 5309 5304
5492 5494 5495 5496 5496 5496 5496 5495 5494 5493 5490 5488 5487 5484 5481 5478 5474 5470 5464 5459 5453 5446 5440 5434 5427 5420 5413 5407 5399 5392 5384 5376 5367 5359 5349 5341 5336 5331 5326 5321 5315 5310 5307 5304
5478 5479 5480 5481 5481 5481 5481 5480 5479 5477 5476 5475 5473 5470 5467 5464 5460 5457 5452 5445 5439 5433 5427 5422 5417 5410 5404 5399 5393 5386 5378 5370 5361 5352 5344 5337 5332 5328 5323 5318 5313 5308 5305 5302
5464 5464 5464 5465 5466 5466 5465 5465 5465 5463 5462 5461 5459 5456 5454 5451 5447 5443 5438 5432 5426 5421 5416 5411 5406 5400 5395 5390 5384 5378 5371 5363 5356 5348 5340 5333 5328 5325 5321 5316 5311 5307 5304 5301
5450 5450 5450 5451 5451 5452 5452 5452 5451 5450 5448 5447 5446 5444 5441 5438 5433 5429 5424 5420 5415 5410 5405 5400 5394 5391 5387 5382 5376 5370 5363 5356 5349 5342 5335 5328 5323 5321 5317 5313 5309 5305 5303 5301
5436 5436 5437 5438 5438 5439 5440 5439 5438 5438 5437 5436 5434 5431 5427 5424 5420 5416 5411 5407 5402 5398 5393 5389 5385 5382 5377 5373 5368 5362 5356 5349 5344 5337 5330 5324 5319 5317 5314 5310 5307 5304 5302 5301
5423 5424 5425 5426 5427 5428 5429 5429 5428 5427 5425 5423 5420 5417 5414 5410 5406 5402 5398 5394 5389 5385 5382 5378 5376 5372 5368 5364 5359 5354 5348 5343 5338 5332 5326 5319 5315 5313 5311 5307 5305 5303 5301 5300
5413 5414 5415 5417 5418 5418 5418 5417 5416 5414 5411 5409 5406 5403 5400 5396 5393 5389 5385 5382 5378 5374 5372 5369 5366 5363 5358 5354 5350 5346 5341 5337 5332 5327 5321 5315 5311 5309 5307 5304 5303 5301 5300 5300
5404 5406 5407 5407 5408 5407 5406 5405 5403 5401 5399 5396 5393 5390 5386 5382 5379 5376 5374 5370 5367 5365 5362 5360 5356 5352 5349 5345 5341 5338 5334 5330 5326 5321 5316 5311 5307 5305 5303 5302 5300 5299 5298 5299
5396 5397 5397 5397 5397 5396 5394 5392 5390 5388 5385 5382 5379 5376 5373 5370 5368 5366 5363 5360 5357 5355 5351 5349 5345 5343 5340 5336 5332 5330 5327 5323 5319 5315 5311 5306 5303 5301 5299 5298 5297 5297 5297 5297
5387 5387 5387 5386 5384 5383 5381 5378 5376 5373 5370 5368 5365 5363 5362 5360 5358 5356 5353 5350 5346 5344 5341 5339 5335 5332 5329 5326 5324 5322 5319 5316 5312 5309 5305 5301 5298 5296 5295 5294 5293 5293 5294 5295
5377 5376 5374 5372 5371 5369 5367 5365 5363 5361 5359 5357 5356 5354 5352 5350 5347 5344 5341 5338 5336 5332 5330 5326 5324 5321 5319 5317 5315 5312 5310 5308 5305 5302 5299 5296 5293 5292 5291 5290 5290 5290 5291 5292
5365 5363 5361 5359 5358 5356 5355 5353 5352 5351 5349 5347 5345 5343 5340 5337 5334 5331 5328 5326 5323 5320 5318 5315 5313 5311 5309 5306 5304 5303 5300 5298 5296 5294 5292 5289 5288 5286 5286 5286 5286 5286 5287 5289